South St. Paul, MN

12:45 AM CST on January 24, 2018 (GMT -0600)
South Saint Paul Municipal-Fleming

Weather History for KSGS - October, 2013

Change the Weather History Date:

Tuesday, October 8, 2013

  Actual Average (KSTP) Record (KSTP)
Temperature  
Mean Temperature 64 °F -  
Max Temperature 79 °F 62 °F 86 °F (2010)
Min Temperature 50 °F 40 °F 27 °F (2000)
Growing Degree Days 14 (Base 50)    
Moisture  
Dew Point 44 °F    
Average Humidity 53    
Maximum Humidity 86    
Minimum Humidity 25    
Precipitation  
Precipitation 0.00 in - - ()
Sea Level Pressure  
Sea Level Pressure 29.91 in    
Wind  
Wind Speed 7 mph (SSE)    
Max Wind Speed 22 mph    
Max Gust Speed 31 mph    
Visibility 10 miles    
Events      
Averages and records for this station are not official NWS values.
T = Trace of Precipitation, MM = Missing Value Source: NWS Daily Summary

Daily Weather History Graph

Daily Weather History Graph

Search for Another Location

Airport or City:

Trip Planner

Search our weather history database for the weather conditions in past years. The results will help you decide how hot, cold, wet, or windy it might be!

Date:

Astronomy

Oct. 08, 2013 Rise Set
Actual Time 7:19 AM CDT 6:39 PM CDT
Civil Twilight 6:49 AM CDT 7:08 PM CDT
Nautical Twilight 6:15 AM CDT 7:42 PM CDT
Astronomical Twilight 5:41 AM CDT 8:16 PM CDT
Moon 11:23 AM CDT (10/8) 9:06 PM CDT (10/8)
Length of Visible Light 12h 18m
Length of Day
11h 20m
Waxing Crescent, 16% of the Moon is Illuminated
Oct 8
Waxing Crescent
Oct 11
First Quarter
Oct 18
Full
Oct 26
Last Quarter
Nov 3
New

Hourly Weather History & Observations

Time (CDT) Temp. Dew Point Humidity Pressure Visibility Wind Dir Wind Speed Gust Speed Precip Events Conditions
12:12 AM 50.7 °F 46.8 °F 86% 29.98 in 10.0 mi Calm Calm - N/A   Clear
12:32 AM 50.5 °F 46.0 °F 85% 29.98 in 10.0 mi Calm Calm - N/A   Clear
12:52 AM 51.8 °F 46.8 °F 83% 29.98 in 10.0 mi Calm Calm - N/A   Clear
1:12 AM 52.0 °F 46.4 °F 81% 29.98 in 10.0 mi SSE 4.6 mph - N/A   Clear
1:32 AM 51.8 °F 46.2 °F 81% 29.98 in 10.0 mi SSE 4.6 mph - N/A   Clear
1:52 AM 51.8 °F 46.0 °F 81% 29.98 in 10.0 mi SSE 3.5 mph - N/A   Clear
2:12 AM 51.8 °F 45.9 °F 80% 29.98 in 10.0 mi SSE 5.8 mph - N/A   Clear
2:32 AM 51.8 °F 45.7 °F 80% 29.97 in 10.0 mi SSE 4.6 mph - N/A   Clear
2:52 AM 51.4 °F 45.5 °F 80% 29.97 in 10.0 mi SSE 3.5 mph - N/A   Clear
3:12 AM 51.4 °F 45.5 °F 80% 29.97 in 10.0 mi SSE 3.5 mph - N/A   Clear
3:32 AM 51.1 °F 45.5 °F 81% 29.96 in 10.0 mi SSE 5.8 mph - N/A   Clear
3:52 AM 51.1 °F 45.5 °F 81% 29.96 in 10.0 mi SSE 5.8 mph - N/A   Clear
4:12 AM 50.9 °F 45.1 °F 81% 29.96 in 10.0 mi SSE 3.5 mph - N/A   Clear
4:32 AM 50.7 °F 45.5 °F 82% 29.96 in 10.0 mi SE 4.6 mph - N/A   Clear
4:52 AM 50.4 °F 44.6 °F 81% 29.95 in 10.0 mi SSE 4.6 mph - N/A   Clear
5:12 AM 50.5 °F 44.6 °F 80% 29.95 in 10.0 mi SSE 4.6 mph - N/A   Clear
5:32 AM 50.5 °F 44.6 °F 80% 29.95 in 10.0 mi SSE 5.8 mph - N/A   Clear
5:52 AM 50.9 °F 44.4 °F 78% 29.95 in 10.0 mi SSE 5.8 mph - N/A   Clear
6:12 AM 50.9 °F 44.6 °F 79% 29.95 in 10.0 mi SSE 5.8 mph - N/A   Clear
6:32 AM 50.5 °F 44.4 °F 80% 29.95 in 10.0 mi SSE 5.8 mph - N/A   Clear
6:52 AM 51.3 °F 45.3 °F 80% 29.94 in 10.0 mi SSE 8.1 mph - N/A   Clear
7:12 AM 51.1 °F 44.8 °F 79% 29.94 in 10.0 mi SSE 6.9 mph - N/A   Clear
7:32 AM 50.9 °F 45.1 °F 81% 29.94 in 10.0 mi SSE 4.6 mph - N/A   Clear
7:52 AM 51.6 °F 45.5 °F 80% 29.94 in 10.0 mi SSE 6.9 mph - N/A   Clear
8:12 AM 52.9 °F 45.1 °F 75% 29.94 in 10.0 mi SSE 5.8 mph - N/A   Clear
8:32 AM 54.0 °F 45.7 °F 74% 29.94 in 10.0 mi SSE 6.9 mph - N/A   Clear
8:52 AM 55.2 °F 45.5 °F 70% 29.94 in 10.0 mi SSE 6.9 mph - N/A   Clear
9:12 AM 56.7 °F 45.5 °F 66% 29.93 in 10.0 mi SSE 6.9 mph - N/A   Clear
9:32 AM 58.8 °F 46.4 °F 63% 29.93 in 10.0 mi SSE 5.8 mph - N/A   Clear
9:52 AM 61.0 °F 46.0 °F 58% 29.92 in 10.0 mi SSE 8.1 mph - N/A   Clear
10:12 AM 63.1 °F 45.9 °F 53% 29.92 in 10.0 mi SSE 9.2 mph - N/A   Clear
10:32 AM 65.1 °F 45.7 °F 49% 29.92 in 10.0 mi SSE 8.1 mph - N/A   Clear
10:52 AM 67.3 °F 46.0 °F 46% 29.91 in 10.0 mi South 5.8 mph - N/A   Clear
11:12 AM 70.0 °F 45.9 °F 42% 29.91 in 10.0 mi SSW 10.4 mph - N/A   Clear
11:32 AM 72.3 °F 43.7 °F 36% 29.90 in 10.0 mi South 16.1 mph 21.9 mph N/A   Clear
11:52 AM 73.2 °F 43.7 °F 35% 29.89 in 10.0 mi South 16.1 mph 23.0 mph N/A   Clear
12:12 PM 74.1 °F 44.4 °F 35% 29.90 in 10.0 mi South 17.3 mph 23.0 mph N/A   Clear
12:32 PM 74.3 °F 44.1 °F 34% 29.88 in 10.0 mi South 16.1 mph 25.3 mph N/A   Clear
12:52 PM 75.2 °F 43.0 °F 32% 29.88 in 10.0 mi South 19.6 mph 27.6 mph N/A   Clear
1:12 PM 75.2 °F 43.7 °F 32% 29.87 in 10.0 mi South 16.1 mph 25.3 mph N/A   Clear
1:32 PM 74.3 °F 43.2 °F 33% 29.87 in 10.0 mi South 10.4 mph - N/A   Clear
1:52 PM 75.7 °F 42.6 °F 31% 29.86 in 10.0 mi South 12.7 mph 19.6 mph N/A   Clear
2:12 PM 77.4 °F 41.4 °F 28% 29.85 in 10.0 mi South 13.8 mph 24.2 mph N/A   Clear
2:32 PM 78.1 °F 41.5 °F 27% 29.85 in 10.0 mi South 16.1 mph 21.9 mph N/A   Clear
2:52 PM 78.6 °F 41.0 °F 26% 29.85 in 10.0 mi South 21.9 mph 31.1 mph N/A   Clear
3:12 PM 78.4 °F 41.5 °F 27% 29.85 in 10.0 mi South 12.7 mph 29.9 mph N/A   Clear
3:32 PM 78.4 °F 42.4 °F 28% 29.85 in 10.0 mi South 11.5 mph 19.6 mph N/A   Clear
3:52 PM 79.0 °F 42.6 °F 27% 29.85 in 10.0 mi South 13.8 mph 23.0 mph N/A   Clear
4:12 PM 79.2 °F 40.8 °F 25% 29.85 in 10.0 mi South 21.9 mph 27.6 mph N/A   Clear
4:32 PM 79.2 °F 40.8 °F 25% 29.85 in 10.0 mi South 11.5 mph 21.9 mph N/A   Clear
4:52 PM 77.2 °F 40.6 °F 27% 29.84 in 10.0 mi South 17.3 mph 24.2 mph N/A   Clear
5:12 PM 77.0 °F 40.8 °F 27% 29.85 in 10.0 mi South 12.7 mph 18.4 mph N/A   Clear
5:32 PM 76.6 °F 41.0 °F 28% 29.85 in 10.0 mi South 15.0 mph 21.9 mph N/A   Clear
5:52 PM 76.1 °F 42.3 °F 30% 29.85 in 10.0 mi SSE 11.5 mph 19.6 mph N/A   Clear
6:12 PM 75.4 °F 42.4 °F 31% 29.85 in 10.0 mi South 13.8 mph 20.7 mph N/A   Clear
6:32 PM 74.3 °F 42.8 °F 32% 29.85 in 10.0 mi South 11.5 mph 18.4 mph N/A   Clear
6:52 PM 73.8 °F 43.0 °F 33% 29.85 in 10.0 mi SSE 11.5 mph 16.1 mph N/A   Clear
7:12 PM 73.4 °F 42.8 °F 33% 29.85 in 10.0 mi South 10.4 mph 17.3 mph N/A   Clear
7:32 PM 72.7 °F 43.0 °F 34% 29.85 in 10.0 mi SSE 11.5 mph 19.6 mph N/A   Clear
7:52 PM 72.1 °F 43.2 °F 35% 29.86 in 10.0 mi SSE 10.4 mph 17.3 mph N/A   Clear
8:12 PM 72.0 °F 43.2 °F 35% 29.86 in 10.0 mi South 12.7 mph 24.2 mph N/A   Clear
8:32 PM 71.8 °F 43.2 °F 36% 29.87 in 10.0 mi South 15.0 mph 21.9 mph N/A   Clear
8:52 PM 71.2 °F 43.5 °F 37% 29.87 in 10.0 mi South 11.5 mph 20.7 mph N/A   Clear
9:12 PM 70.7 °F 43.7 °F 38% 29.88 in 10.0 mi South 15.0 mph 21.9 mph N/A   Clear
9:32 PM 69.8 °F 43.9 °F 39% 29.90 in 10.0 mi South 9.2 mph 18.4 mph N/A   Clear
9:52 PM 69.8 °F 44.1 °F 39% 29.92 in 10.0 mi SSW 8.1 mph - N/A   Clear
10:12 PM 69.1 °F 44.4 °F 41% 29.92 in 10.0 mi SSW 6.9 mph - N/A   Clear
10:32 PM 68.4 °F 45.0 °F 43% 29.93 in 10.0 mi SSW 8.1 mph - N/A   Clear
10:52 PM 68.4 °F 45.1 °F 43% 29.93 in 10.0 mi South 4.6 mph - N/A   Clear
11:12 PM 67.1 °F 45.7 °F 46% 29.93 in 10.0 mi South 5.8 mph - N/A   Clear
11:32 PM 66.2 °F 45.7 °F 48% 29.94 in 10.0 mi SSW 3.5 mph - N/A   Clear
11:52 PM 65.5 °F 45.9 °F 49% 29.94 in 10.0 mi SSW 3.5 mph - N/A   Clear